Showing default

MCUBED-2, 39469

Orbit data source: Space-Track

MCUBED-2, 39469 is an American payload satellite in LEO that was launched on Fri, 06 Dec 2013 UTC via an ATLAS V 501 launch vehicle from the Air Force Western Test Range (AFWTR). Payload-class satellites include a variety of spacecraft equipped with specific instruments for various scientific and technological missions. These include communications satellites like Starlink; space stations such as the ISS; scientific satellites like the Hubble; Earth observation satellites from companies like Planet Labs, Umbra, and HawkEye 360; GPS; miniature CubeSats for education and research; and military/defense satellites.

Loading next visibility...
Identifier
39469, 2013-072H
Orbit
LEO
Country
Flag of USUS
Related business
Manufacturer
UM
Mission
Operational Amateur Technology
Bus & Motor
CUBESAT 1U, Unknown motor
Mass
1 kg wet, 1 kg dry
Launch date (UTC)
2013-12-06 (12 years ago)
Launch vehicle
ATLAS V 501
Launch site
Air Force Western Test Range (AFWTR)
Object type
Payload
Rocket body
Debris
Shape & HBR
Box, 0.1 m
Radar Cross Section
0.015 m², Small (<0.1 m²)

Expand to show TLE details & history
Last TLE update: 9 hours ago

TLE from 9 hours ago
0 MCUBED-2
1 39469U 13072H   26095.19995633  .00019524  00000-0  78954-3 0  9998
2 39469 120.4906  70.6224 0136241 298.3014  60.4371 15.16721812106754
Epoch: 2026-04-05T04:47Z
TLE epoch observation values (Epoch: 2026-04-05T04:47:56.226Z)
Latitude
-0.00009°
Longitude
165.12938°
Altitude
471.938 km
Speed
7.656 km/s
True Right ascension
04h 42m 29s
True Declination
0° 00' 00"
Sunlit
Object was in daylight at epoch
Visualization orbit readout
Latitude
Unknown
Longitude
Unknown
Altitude
Unknown
Speed
Unknown
Apparent Right ascension
Unknown
Apparent Declination
Unknown
Sunlit
N/A
Visualization observer readout
Local Sidereal Time
19:30:46
Azimuth
Unknown
Elevation
Unknown
Doppler factor
Unknown
Orbital elements
Apogee altitude
608.946 km
Perigee altitude
421.12 km
Semi-major axis
6,893.17 km
Eccentricity
0.01362
Inclination
120.4906°
RAAN
70.6224°
Arg. of periapsis
298.3014°
True anomaly
61.80643°
Mean anomaly
60.4371°
Eccentric anomaly
61.12063°
Mean motion
3.7924 °/min
Orbital period
94.93 mins
BSTAR
0.00078954
Loading maneuver chart data...
Computing Atmospheric mass density...
Loading historical data...
Loading historical data...
Loading historical data...
Loading historical data...
Loading historical data...
Loading historical data...
Loading historical data...

Documentation

Showing up to 5 results
|